Погода в Вендинге

Россия / Республика Коми     63°27′32″N   47°58′09″E
темп.,
°C
ветер,
м/с
пор.,
м/с
влажн.,
%
обл.,
%
осадки,
мм/ч
давл.,
гПа
погр.,
м
25 июля, вс
вс2500:00+8зюз3996100 0.2 1009450
03:00+6з389795 0.2 1010286
06:00+8зюз3992100 0.0 1011440
09:00+11зюз3772100 0.0 1011620
12:00+16з464499 0.0 10111876
15:00+17зюз594771 0.0 10111857
18:00+12сз2783100 0.1 1013401
21:00+10з139580 0.4 1013101
26 июля, пн
пн2600:00+9сз259773 0.1 1014149
03:00+8зсз2493100 0.1 1015125
06:00+10з25799 0.0 1015302
09:00+14з4747100 0.0 10141766
12:00+12з4671100 0.1 1015905
15:00+13зсз466593 0.4 10141289
18:00+11сз376992 0.4 1014739
21:00+8сз377371 0.4 1015340
27 июля, вт
вт2700:00+5зсз2108843 0.0 1016246
03:00+7зсз31080100 0.0 1016551
06:00+9сз4978100 0.0 1016853
09:00+10сз5869100 0.0 10161020
12:00+12сз585869 0.0 10161145
15:00+16сз6104866 0.0 10151790
18:00+15сз512435 0.0 10141690
21:00+10сз38648 0.0 1014237
28 июля, ср
ср2800:00+6сз22887 0.0 101440
03:00+5зсз239711 0.0 101358
06:00+10зсз1374100 0.0 1011281
09:00+10з1495100 1.8 1010252
12:00+10зюз2697100 1.7 1008439
15:00+12зсз3585100 1.9 1006766
18:00+12ссз1491100 0.1 1006351
21:00+10сз2398100 0.4 1005115
29 июля, чт
чт2900:00+7сз239923 0.1 100575
03:00+5с229812 0.1 100534
06:00+8ссв12890 0.0 1005212
09:00+14зюз11598 0.0 1004915
12:00+17зюз23444 0.0 10021399
15:00+20юз2442100 0.0 10001718
18:00+12в2598100 4.8 999149
21:00+12юв31096100 5.1 998261